sat.trackr.live / text

‹ back to catalog

SITRO-AIS 39

NORAD 61778 · 2024-199AV

PAYLOAD ACTIVE UNKNOWN

§ Identity

Operator
Country
CIS
Launch date
2024-11-04
Launch site
VOSTO
Launch vehicle
Mass (kg)
RCS (m²)

External: N2YO · Heavens-Above · Gunter

§ Orbital elements

Epoch: 2026-05-25T03:24:10.236096Z

Period
92.57 min
Inclination
97.2937°
Eccentricity
0.0007440
Mean motion
15.55648032 rev/d
Perigee alt
395.2 km
Apogee alt
405.3 km
Semi-major
6,778.4 km
B*
6.6181e-4
RAAN
20.3736°
Arg perigee
30.5929°
Mean anomaly
329.5758°
Rev number
13,083

§ Raw data

SITRO-AIS 391 61778U 24199AV  26145.14178514  .00045572  00000+0  66181-3 0  99902 61778  97.2937  20.3736 0007440  30.5929 329.5758 15.55648032130835

JSON: /api/v1/satellites/61778 · /tle

For live sub-satellite position, see the globe view (requires WebGL).

§ Visibility from observer

Set your observer location to see the next 7 days of passes ≥ 10°. The values pass through the URL so the page stays shareable.

No JS? Fill the form by hand. The geolocation button needs JavaScript.

§ Radio — SatNOGS DB

ModeDescriptionDownlinkUplink
GMSK USP Mode U - GMSK2k4 - USP 401.065 MHz

1 transmitter · refreshed weekly from db.satnogs.org